SKYSAT-C5 (41772 NORAD) Tracking and Keplerian Element Data

This shows tracking and keplerian element data for the satellite.

Feedback or suggestion? Click here.




ElementValue
Catalog41772
NameSKYSAT-C5
Epoch Orbit27963
Epoch Day270.14384928
Epoch Year2021
RAAN335.6304
Inclination97.3033
Eccentricity0.0001972
Argument of Perigee88.9019
Mean Anonmoly271.2445
Mean Motion15.24769136
Decay Rate1.727E-05
L11 41772U 16058C 21270.14384928 .00001727 00000-0 72497-4 0 9992
L22 41772 97.3033 335.6304 0001972 88.9019 271.2445 15.24769136279632

Live tracking and technical data element details for SKYSAT-C5 (NORAD 41772). SKYSAT-C5 can be tracked NOW for your location showing map with azimuth and elevation plus other details from your city location.

Track the satellite on the map from your city or location and see movement details for azimuth, elevation, latitude, longitude, range, height, and movement on the map or in text.







IsCatalogInMostPopularTable: catalog: 41772, numindb: 535
Update: records affected: 1



GetName: 41772 SKYSAT-C5

Hit Count: updated at: Tue, 28 Sep 2021 16:13:19 GMT